GFSFLT2_prec_radar_120.txt.gz
Reflectivity
14 -20 -20 -20 -20 -20 -14 16 3 11 14 -9 -7 -1 -16 -7 -14 -5 -19 -5 -20 -20 -20 -20 -20 -20 -20
-19 -1 -20 -20 -20 -20 -20 -6 16 22 22 13 -0 14 11 9 -20 -20 -12 6 -20 -20 -9 -7 -20 -20 -19
-20 -20 -20 -11 -20 7 2 -15 2 24 21 16 17 15 17 12 -3 3 -20 -20 -5 -20 -20 -20 -20 -20 12
-20 -13 -8 -9 -2 2 8 8 18 16 32 18 4 20 17 13 14 3 -20 -20 -16 -7 -12 -20 -20 -20 9
-20 -14 -20 -20 -19 -14 -4 -11 19 -3 15 32 36 18 19 24 23 7 2 -20 -20 -20 -20 -20 -20 -20 -20
-19 10 11 13 -4 -20 -20 6 7 5 18 24 8 25 36 24 24 22 3 -20 -20 -20 -20 -12 -20 4 -19
0 -1 6 9 17 8 -17 -8 11 14 14 26 15 20 9 11 27 10 24 24 2 -2 -20 -20 -20 -20 -20
7 6 1 -1 14 16 14 15 27 23 23 30 14 30 2 16 29 9 13 3 -1 6 -8 -20 -20 -20 -20
9 -2 -20 -15 7 9 19 21 22 13 -2 33 38 31 32 23 28 -1 -20 -20 7 -11 -20 -20 -20 -20 -20
-19 -14 -20 -20 -3 6 17 19 29 23 30 24 26 23 27 31 30 26 2 -2 -20 -20 -20 -20 -20 -20 -20
5 5 -20 -20 -19 7 4 26 25 16 26 21 29 29 33 29 38 23 4 -20 -20 -20 -20 -20 -20 -20 -20
-3 6 10 -17 -12 21 11 22 28 30 32 29 22 30 27 26 30 21 2 -10 -20 -20 -20 -20 -20 -20 -20
-4 -5 -10 1 12 15 19 18 29 30 33 29 32 20 27 28 28 24 -1 -20 -20 -20 -20 -20 -20 -20 -20
14 13 -4 7 4 8 -7 -1 10 8 14 23 27 31 11 17 27 -2 -1 -12 -20 -20 -20 -20 -20 -20 -20
-4 2 9 3 -13 -2 -15 -8 -3 -18 7 16 19 22 27 21 22 24 13 -20 -20 -20 -20 -20 -20 -20 -20
-5 -2 -1 9 -12 3 -16 -11 15 -7 -1 11 16 21 25 25 29 13 -20 -20 -20 -20 -19 -5 -19 -20 -20
-20 -4 10 -5 10 -20 -13 7 10 -10 7 6 17 19 22 17 18 2 -6 -19 -4 -10 1 -9 -16 -20 -20

GFSFLT2_prec_radar_123.txt.gz
Reflectivity
13 16 -2 -19 -13 -16 -20 -20 -20 -20 -8 17 8 5 -20 1 -0 -16 -20 -20 -20 -20 -20 -20 -20 -20 -20
2 -19 -20 -20 -14 -1 -20 -20 -20 -20 -0 4 24 24 18 22 22 16 13 7 -18 -6 -20 -20 -20 -20 -20
-5 1 -20 -20 -20 -20 -20 -20 -20 -18 -20 -3 19 19 15 25 29 13 10 1 0 13 2 -20 -20 -20 -20
-20 -20 -13 -8 -16 -14 -16 -20 -20 -20 -20 -20 11 22 20 15 20 23 23 18 19 4 22 -17 -20 -20 -20
3 -10 -20 -1 -0 -10 -8 -16 -15 -18 -20 -20 -20 -14 7 23 25 27 30 31 24 14 19 20 -20 -20 -20
8 -1 -5 5 9 11 11 5 3 -6 -20 -13 -20 -20 -5 21 25 28 22 21 26 18 21 26 7 23 -20
-11 -10 -2 -3 12 1 -1 12 7 -14 9 6 -9 -17 -20 10 29 38 33 40 38 35 29 21 11 21 -4
-20 -18 2 -19 7 12 12 6 -2 -0 5 15 -9 -3 28 17 29 35 34 37 27 27 29 22 15 11 3
-20 -14 -20 -20 8 14 -8 12 4 -7 3 -2 10 2 -1 28 29 39 37 34 25 19 26 -10 16 25 12
-20 -20 -20 -18 8 10 8 -0 24 10 8 3 16 -0 16 19 -5 24 26 31 37 34 27 16 4 -1 3
-14 -20 -20 -15 -13 11 2 9 15 19 20 22 30 2 4 13 15 28 37 38 38 31 13 -1 -14 4 -7
-16 9 -2 11 6 -10 7 11 11 23 13 19 24 13 16 12 17 14 22 34 35 42 13 15 -20 -20 -20
-17 15 -3 -19 -15 -11 -19 8 -9 -2 16 17 29 27 22 6 2 13 26 20 36 32 18 0 -20 -20 -20
-20 -20 -6 -15 -8 12 -18 -10 -20 -20 -13 5 19 13 11 17 24 14 16 20 22 16 -20 -20 -20 -20 -20
-5 -20 -13 -9 -12 11 -18 -20 1 -19 -20 -2 9 3 16 2 -20 -20 -2 16 19 -20 -20 -20 -20 -20 -20
-11 -2 -10 -15 -11 -11 -19 -17 -17 -13 -8 -20 -18 7 6 -5 11 -1 5 -0 17 -9 -15 -15 -20 -20 -20
-20 -12 -20 3 12 -20 -19 -20 -18 -13 -14 1 1 -14 11 12 16 7 4 -0 6 8 5 -8 -18 -20 -20

GFSFLT2_prec_radar_126.txt.gz
Reflectivity
16 5 -3 -4 -19 -17 3 -19 -20 -20 -20 -20 -15 -5 -9 -11 12 11 12 6 -20 0 -3 -20 -20 -16 -20
-2 -6 -15 -20 -19 -19 -20 -20 -20 2 8 13 16 12 13 10 0 14 16 16 19 24 27 0 -9 -20 -20
-20 -20 -20 -20 -20 -20 -20 -20 -20 -20 -20 -18 -5 6 10 12 11 11 13 16 18 20 19 24 2 -12 -5
-20 -20 -20 -20 -20 -4 -17 -20 -20 -20 -20 -20 -20 -20 -20 -15 12 19 9 19 18 23 15 26 12 20 -13
-20 -20 -20 -20 -13 -7 1 -6 -6 -6 -15 -20 -20 -20 -20 -19 -14 22 17 14 19 22 19 27 20 29 -8
-20 -20 -20 -20 -5 -1 -10 1 4 -20 -3 5 -16 -20 -20 -20 -14 13 13 18 24 25 25 30 33 13 -9
-20 -20 -20 -20 1 -20 -10 3 -2 -5 4 -6 -16 -7 -14 -17 9 6 14 20 25 28 36 30 28 16 12
-20 -20 -20 -20 -20 -20 -20 5 5 -14 -20 -14 -9 -20 -13 -20 -13 -2 3 22 22 27 32 29 36 27 32
-2 -20 -9 2 3 13 1 -7 10 10 -4 -14 -16 -20 16 -20 -8 8 1 19 28 24 35 36 36 35 25
-20 -17 -13 2 -17 7 18 11 12 15 -17 16 8 -5 3 9 -20 -20 -20 25 31 30 32 36 27 27 26
-20 -20 -20 -20 -20 -20 -13 -2 12 10 3 24 7 1 5 -4 -17 -20 -19 14 31 27 26 31 28 28 33
-20 -20 -20 -20 -20 -20 -20 -7 -1 13 18 14 17 -2 2 -13 -20 -20 -11 25 26 25 33 34 32 33 21
-20 -19 -20 -20 -15 -18 -20 -11 -20 -10 -16 -6 15 9 17 -3 -19 11 -15 9 25 17 17 19 17 12 21
-20 -20 -20 -20 -6 -6 -2 -14 -20 -20 -20 -20 -16 0 -20 -20 -18 -15 -7 -12 4 13 1 -7 -1 11 -10
-20 -20 -20 -20 -20 -7 -4 -17 -18 -20 -20 -20 -20 -20 -19 -16 -20 -3 8 -2 18 16 7 14 8 6 -20
-15 -20 -20 -18 -20 -20 -4 -14 -18 -20 -20 -20 -20 -20 -20 -18 -2 -17 -20 -11 9 20 10 14 -14 -20 -20
-17 -4 -18 -9 -1 -20 -18 -20 -20 -20 -20 -20 -20 -20 -20 -20 -20 -3 -20 -20 -2 7 10 3 -10 -19 -20

GFSFLT2_prec_radar_129.txt.gz
Reflectivity
16 -11 -15 0 -9 -6 3 -12 -13 -20 -20 -20 -12 -16 -19 9 12 -9 10 10 17 14 17 6 -1 10 13
6 11 18 8 -4 -19 -20 -20 -20 -20 -20 -20 -20 -20 -20 -20 -20 -20 -20 5 5 13 21 20 19 10 13
-7 -20 -20 -20 -20 -20 -20 -20 -20 -20 -20 -20 -20 -20 -20 -20 -20 -20 -20 -18 -6 11 14 19 12 23 12
-20 -20 -20 -20 -20 -20 -20 -20 -20 -20 -20 -20 -20 -20 -20 -20 -20 -20 -20 -20 -6 12 16 16 16 29 20
-20 -20 -20 -20 -20 -20 -20 -20 -20 -20 -20 -20 -20 -20 -20 -20 -20 -20 -20 -20 -17 14 15 13 14 30 21
-20 -20 -20 -20 -20 -20 -20 -7 -20 -20 -20 -20 -16 -20 -20 -20 -20 -20 -20 -20 -20 14 21 23 19 30 22
-20 -20 -20 -20 -20 -20 -20 -20 -17 -20 2 -20 -15 -20 -20 -20 -20 -20 -20 -6 2 -19 16 16 21 16 14
-20 -20 -20 -20 -19 1 9 8 -1 -15 -20 -14 -20 -20 -20 -20 -20 -20 -18 -5 -1 3 13 19 9 24 30
-20 5 12 3 4 7 -20 -15 -11 -8 -20 0 -19 4 -20 -20 -15 5 -20 -20 -8 -16 16 18 22 27 13
-20 -20 -20 1 9 -6 3 -6 -5 8 -12 3 -15 -15 -0 -20 -20 -10 -18 -5 -13 16 24 24 21 19 8
-20 -20 -20 -20 -20 -19 -14 -7 -13 -10 -9 20 6 -12 -4 -5 -16 -19 -8 -20 -20 5 19 13 16 17 34
-20 -20 -20 -20 -20 -20 -20 -15 -6 9 -13 14 8 6 18 3 -15 -20 -20 -20 -17 20 12 20 -5 2 19
-20 -20 -20 -20 -20 -20 -20 9 -14 -20 -20 -15 -16 -6 1 -16 -14 -17 -17 -20 -10 -9 10 9 4 6 -9
-7 -2 -20 -20 -20 -20 -20 -20 -20 -20 -20 -20 -20 -20 -20 -20 -20 -20 -20 -20 -20 -17 -20 -15 14 1 -11
-20 -20 -20 -20 -20 -20 -20 -20 -19 -20 -20 -20 -20 -20 -20 -20 -20 -20 -15 -18 -20 -20 -18 -20 -4 -4 7
-15 -20 -18 -3 -12 -20 -20 -20 -18 -20 -20 -20 -20 -20 -20 -19 -9 -20 -16 -20 -1 8 9 -20 -20 -20 -20
-20 -20 -5 -20 -19 -20 -20 -20 -20 -20 -20 -20 -19 -20 -20 -20 -20 -4 -20 -20 -19 10 8 -20 -18 -20 -5

GFSFLT2_prec_radar_132.txt.gz
Reflectivity
27 23 30 32 32 9 9 10 -3 1 -20 -20 -20 -20 -20 -20 -20 -20 -20 -20 -18 -8 -2 7 7 22 11
29 34 28 23 15 -18 -14 -18 -20 -20 -20 -20 -20 -20 -20 -18 2 7 -14 -19 -20 -13 -5 -19 -19 1 31
30 21 -5 -4 -20 -20 -20 -20 -20 -20 -20 -20 -20 -20 -20 -20 -20 -20 -20 -20 -20 -20 -20 -20 -18 7 25
8 -1 -20 -20 -20 -20 -20 -20 -20 -20 -20 -20 -20 -20 -20 -20 -20 -20 -20 -20 -20 -20 -20 -20 -16 2 20
-20 -12 -20 -15 -15 -20 -20 -20 -20 -20 -20 -20 -20 -20 -20 -20 -20 -20 -20 -20 -16 -12 -20 -20 -18 10 2
-20 -20 -20 -20 -20 -20 -20 -20 -20 -20 -20 -20 -20 -20 -20 -20 -20 -20 -20 -20 -3 -1 -0 -20 -20 10 4
-20 -20 -20 -20 -20 -20 -20 -7 6 -19 -7 -20 -20 -20 -20 -20 -20 -20 -20 -20 -20 -20 -5 -0 -13 0 11
-20 -20 -20 -20 -9 -5 5 5 -0 -16 -20 8 -16 -13 -20 -20 -20 -11 0 2 -16 -20 -20 -20 -20 -18 19
-20 -20 -20 -20 3 -2 -5 -15 -5 -5 -13 16 -0 -19 -20 -20 -20 -20 -20 -17 -17 -20 3 -17 -20 7 23
-20 -20 -20 -20 6 -11 -12 -18 -16 -0 -18 7 -19 3 -20 -20 -20 -1 -19 -20 -20 -20 13 15 13 -3 -2
-20 -20 -20 -20 -20 -20 -20 -19 -9 -4 20 19 4 -20 -12 -15 -20 -19 -20 -20 -20 -14 17 7 19 21 24
-20 -20 -20 -20 -20 -20 -20 -20 -8 11 2 -2 7 -18 -16 -20 -20 -20 -20 -20 -20 -20 3 22 19 15 -11
-20 -20 -20 -20 -20 -20 -19 -20 -20 -20 -13 2 -18 -19 -16 -9 -19 -13 2 -20 -20 -20 -20 -17 -12 -19 -20
-20 -20 -20 -20 -20 -20 -20 -20 -17 -20 -20 -20 -20 -19 -20 -20 -16 -20 -20 -20 -20 -20 -20 -20 -20 -12 -11
-20 -13 -20 -20 -20 -20 -20 -13 -2 -14 -20 -20 -20 -20 -20 -20 -19 -20 -20 -20 -20 -20 -20 -20 -20 -12 5
-20 -20 -20 -20 -20 -20 -20 -20 -2 -17 -20 -20 -20 -20 -20 -20 -8 -20 -20 -20 -20 -18 -20 -20 -20 -20 -1
-20 -20 -20 -18 -19 -20 -20 -20 -20 -20 -20 -20 -20 -20 -20 -20 -20 -20 -20 -20 -20 -20 -19 -20 -20 -16 9